,,Stat6,,Stat2,,Stat8,,Stat9,,Stat10,,Wind1,,Wind1,
time,status,PA1M_AVG,status,PR1M_SUM,status,RH1M_AVG,status,SR1M_AVG,status,TA1M_AVG,status,W1dAve1m,status,W1sAve1m,
2009-05-16, 00:00:00,VALID,916.53,VALID,0,VALID,100,VALID,0,VALID,20.1054,VALID,17,VALID,0,
2009-05-16, 00:01:00,VALID,916.543,VALID,0,VALID,99.9654,VALID,0,VALID,20.1216,VALID,17,VALID,0,
2009-05-16, 00:02:00,VALID,916.559,VALID,0,VALID,100,VALID,0.0169808,VALID,20.1311,VALID,17,VALID,0,
2009-05-16, 00:03:00,VALID,916.556,VALID,0,VALID,99.9888,VALID,0,VALID,20.1571,VALID,9,VALID,0,
2009-05-16, 00:04:00,VALID,916.574,VALID,0,VALID,99.7765,VALID,0,VALID,20.1576,VALID,1,VALID,0,
2009-05-16, 00:05:00,VALID,916.576,VALID,0,VALID,99.6353,VALID,0.0509425,VALID,20.1471,VALID,1,VALID,0,
2009-05-16, 00:06:00,VALID,916.566,VALID,0,VALID,99.6658,VALID,0,VALID,20.1503,VALID,359,VALID,0,
2009-05-16, 00:07:00,VALID,916.592,VALID,0,VALID,99.6099,VALID,0.0169808,VALID,20.18,VALID,346,VALID,0,
2009-05-16, 00:08:00,VALID,916.59,VALID,0,VALID,99.5437,VALID,0,VALID,20.1865,VALID,346,VALID,0,
2009-05-16, 00:09:00,VALID,916.608,VALID,0,VALID,99.5832,VALID,0.0169808,VALID,20.1898,VALID,346,VALID,0,
2009-05-16, 00:10:00,VALID,916.604,VALID,0,VALID,99.7205,VALID,0.0339617,VALID,20.1828,VALID,346,VALID,0,
2009-05-16, 00:11:00,VALID,916.596,VALID,0,VALID,99.737,VALID,0,VALID,20.1828,VALID,346,VALID,0,
2009-05-16, 00:12:00,VALID,916.598,VALID,0,VALID,99.7625,VALID,0,VALID,20.1541,VALID,346,VALID,0,
2009-05-16, 00:13:00,VALID,916.597,VALID,0,VALID,99.9087,VALID,0.0169808,VALID,20.1441,VALID,346,VALID,0,
2009-05-16, 00:14:00,VALID,916.605,VALID,0,VALID,99.9756,VALID,0,VALID,20.1246,VALID,346,VALID,0,
2009-05-16, 00:15:00,VALID,916.588,VALID,0,VALID,99.9657,VALID,-0.0169808,VALID,20.1151,VALID,349,VALID,0.0788872,
2009-05-16, 00:16:00,VALID,916.582,VALID,0,VALID,100,VALID,-0.0169808,VALID,20.0887,VALID,355,VALID,0.0078125,
2009-05-16, 00:17:00,VALID,916.592,VALID,0,VALID,100,VALID,0,VALID,20.0919,VALID,355,VALID,0,
2009-05-16, 00:18:00,VALID,916.58,VALID,0,VALID,100,VALID,0,VALID,20.1022,VALID,356,VALID,0,
2009-05-16, 00:19:00,VALID,916.572,VALID,0,VALID,100,VALID,0,VALID,20.0957,VALID,11,VALID,0,
2009-05-16, 00:20:00,VALID,916.557,VALID,0,VALID,100,VALID,0,VALID,20.0954,VALID,37,VALID,0,
2009-05-16, 00:21:00,VALID,916.563,VALID,0,VALID,100,VALID,0,VALID,20.0887,VALID,26,VALID,0,
2009-05-16, 00:22:00,VALID,916.551,VALID,0,VALID,100,VALID,0,VALID,20.0922,VALID,28,VALID,0,
2009-05-16, 00:23:00,VALID,916.56,VALID,0,VALID,100,VALID,0,VALID,20.0994,VALID,36,VALID,0.0300781,
2009-05-16, 00:24:00,VALID,916.548,VALID,0,VALID,100,VALID,0,VALID,20.0829,VALID,34,VALID,0,
2009-05-16, 00:25:00,VALID,916.543,VALID,0,VALID,100,VALID,-0.0169808,VALID,20.0502,VALID,32,VALID,0,
2009-05-16, 00:26:00,VALID,916.532,VALID,0,VALID,100,VALID,0,VALID,20.0178,VALID,30,VALID,0.104167,
2009-05-16, 00:27:00,VALID,916.525,VALID,0,VALID,100,VALID,0,VALID,20.0113,VALID,20,VALID,0.195139,
2009-05-16, 00:28:00,VALID,916.527,VALID,0,VALID,100,VALID,-0.0169808,VALID,20.0145,VALID,28,VALID,0.0716712,
2009-05-16, 00:29:00,VALID,916.527,VALID,0,VALID,100,VALID,0,VALID,20.0513,VALID,31,VALID,0,
2009-05-16, 00:30:00,VALID,916.502,VALID,0,VALID,100,VALID,0,VALID,20.0667,VALID,22,VALID,0.00093006,
2009-05-16, 00:31:00,VALID,916.514,VALID,0,VALID,100,VALID,0.0169808,VALID,20.066,VALID,25,VALID,0.0103561,
2009-05-16, 00:32:00,VALID,916.495,VALID,0,VALID,100,VALID,0,VALID,20.0897,VALID,25,VALID,0,
2009-05-16, 00:33:00,VALID,916.479,VALID,0,VALID,100,VALID,0,VALID,20.0794,VALID,25,VALID,0,
2009-05-16, 00:34:00,VALID,916.464,VALID,0,VALID,100,VALID,0,VALID,20.077,VALID,25,VALID,0,
2009-05-16, 00:35:00,VALID,916.451,VALID,0,VALID,100,VALID,0,VALID,20.0859,VALID,356,VALID,0,
2009-05-16, 00:36:00,VALID,916.439,VALID,0,VALID,100,VALID,0,VALID,20.0824,VALID,356,VALID,0,
2009-05-16, 00:37:00,VALID,916.415,VALID,0,VALID,100,VALID,0.0169808,VALID,20.1022,VALID,356,VALID,0,
2009-05-16, 00:38:00,VALID,916.409,VALID,0,VALID,100,VALID,0,VALID,20.0954,VALID,356,VALID,0,
2009-05-16, 00:39:00,VALID,916.387,VALID,0,VALID,100,VALID,-0.0339617,VALID,20.1062,VALID,356,VALID,0,
2009-05-16, 00:40:00,VALID,916.379,VALID,0,VALID,100,VALID,-0.101885,VALID,20.0842,VALID,356,VALID,0,
2009-05-16, 00:41:00,VALID,916.366,VALID,0,VALID,100,VALID,-0.118866,VALID,20.0642,VALID,131,VALID,0,
2009-05-16, 00:42:00,VALID,916.362,VALID,0,VALID,100,VALID,-0.118866,VALID,20.058,VALID,167,VALID,0,
2009-05-16, 00:43:00,VALID,916.353,VALID,0,VALID,100,VALID,-0.0849042,VALID,20.035,VALID,167,VALID,0,
2009-05-16, 00:44:00,VALID,916.34,VALID,0,VALID,100,VALID,-0.101885,VALID,20.0455,VALID,180,VALID,0,
2009-05-16, 00:45:00,VALID,916.341,VALID,0,VALID,100,VALID,-0.0849042,VALID,20.0515,VALID,192,VALID,0,
2009-05-16, 00:46:00,VALID,916.324,VALID,0,VALID,100,VALID,-0.101885,VALID,20.0972,VALID,191,VALID,0,
2009-05-16, 00:47:00,VALID,916.312,VALID,0,VALID,100,VALID,-0.101885,VALID,20.1034,VALID,190,VALID,0,
2009-05-16, 00:48:00,VALID,916.308,VALID,0,VALID,100,VALID,-0.101885,VALID,20.0905,VALID,190,VALID,0,
2009-05-16, 00:49:00,VALID,916.307,VALID,0,VALID,100,VALID,-0.101885,VALID,20.101,VALID,190,VALID,0,
2009-05-16, 00:50:00,VALID,916.292,VALID,0,VALID,100,VALID,-0.118866,VALID,20.1004,VALID,190,VALID,0,
2009-05-16, 00:51:00,VALID,916.285,VALID,0,VALID,100,VALID,-0.118866,VALID,20.1004,VALID,194,VALID,0,
2009-05-16, 00:52:00,VALID,916.259,VALID,0,VALID,100,VALID,-0.101885,VALID,20.1134,VALID,112,VALID,0,
2009-05-16, 00:53:00,VALID,916.244,VALID,0,VALID,100,VALID,-0.101885,VALID,20.1132,VALID,70,VALID,0,
2009-05-16, 00:54:00,VALID,916.237,VALID,0,VALID,100,VALID,-0.0169808,VALID,20.1052,VALID,69,VALID,0,
2009-05-16, 00:55:00,VALID,916.231,VALID,0,VALID,100,VALID,0.0169808,VALID,20.1149,VALID,68,VALID,0,
2009-05-16, 00:56:00,VALID,916.254,VALID,0,VALID,100,VALID,0.0339617,VALID,20.1276,VALID,68,VALID,0,
2009-05-16, 00:57:00,VALID,916.25,VALID,0,VALID,100,VALID,0.0169808,VALID,20.1406,VALID,68,VALID,0,
2009-05-16, 00:58:00,VALID,916.251,VALID,0,VALID,100,VALID,0.0339617,VALID,20.1601,VALID,68,VALID,0,
2009-05-16, 00:59:00,VALID,916.257,VALID,0,VALID,100,VALID,0.0509425,VALID,20.1473,VALID,67,VALID,0.0478277,
2009-05-16, 01:00:00,VALID,916.27,VALID,0,VALID,100,VALID,0.0849042,VALID,20.1536,VALID,67,VALID,0,
2009-05-16, 01:01:00,VALID,916.274,VALID,0,VALID,100,VALID,0.0339617,VALID,20.1568,VALID,63,VALID,0,
2009-05-16, 01:02:00,VALID,916.267,VALID,0,VALID,100,VALID,0,VALID,20.1309,VALID,57,VALID,0,
2009-05-16, 01:03:00,VALID,916.261,VALID,0,VALID,100,VALID,0.0509425,VALID,20.1184,VALID,57,VALID,0,
2009-05-16, 01:04:00,VALID,916.249,VALID,0,VALID,100,VALID,-0.0169808,VALID,20.1151,VALID,57,VALID,0,
2009-05-16, 01:05:00,VALID,916.251,VALID,0,VALID,100,VALID,0.0169808,VALID,20.0952,VALID,57,VALID,0,
2009-05-16, 01:06:00,VALID,916.235,VALID,0,VALID,100,VALID,0.0339617,VALID,20.0692,VALID,57,VALID,0,
2009-05-16, 01:07:00,VALID,916.22,VALID,0,VALID,100,VALID,0,VALID,20.0565,VALID,55,VALID,0,
2009-05-16, 01:08:00,VALID,916.19,VALID,0,VALID,100,VALID,0,VALID,20.0567,VALID,48,VALID,0,
2009-05-16, 01:09:00,VALID,916.17,VALID,0,VALID,100,VALID,-0.0849042,VALID,20.0483,VALID,28,VALID,0,
2009-05-16, 01:10:00,VALID,916.151,VALID,0,VALID,100,VALID,-0.0849042,VALID,20.0383,VALID,29,VALID,0,
2009-05-16, 01:11:00,VALID,916.14,VALID,0,VALID,100,VALID,-0.118866,VALID,20.0285,VALID,31,VALID,0,
2009-05-16, 01:12:00,VALID,916.129,VALID,0,VALID,100,VALID,-0.0849042,VALID,20.0383,VALID,31,VALID,0,
2009-05-16, 01:13:00,VALID,916.126,VALID,0,VALID,100,VALID,-0.101885,VALID,20.0353,VALID,33,VALID,0,
2009-05-16, 01:14:00,VALID,916.119,VALID,0,VALID,100,VALID,-0.0849042,VALID,20.025,VALID,28,VALID,0,
2009-05-16, 01:15:00,VALID,916.084,VALID,0,VALID,100,VALID,-0.0679233,VALID,20.0223,VALID,27,VALID,0,
2009-05-16, 01:16:00,VALID,916.076,VALID,0,VALID,100,VALID,-0.0849042,VALID,19.9993,VALID,29,VALID,0.207919,
2009-05-16, 01:17:00,VALID,916.048,VALID,0,VALID,100,VALID,-0.0679233,VALID,19.9899,VALID,29,VALID,0.178445,
2009-05-16, 01:18:00,VALID,916.04,VALID,0,VALID,100,VALID,-0.0509425,VALID,19.9507,VALID,3,VALID,0.0486919,
2009-05-16, 01:19:00,VALID,916.042,VALID,0,VALID,100,VALID,-0.0679233,VALID,19.9342,VALID,11,VALID,0,
2009-05-16, 01:20:00,VALID,916.04,VALID,0,VALID,100,VALID,-0.0679233,VALID,19.9374,VALID,31,VALID,0,
2009-05-16, 01:21:00,VALID,916.035,VALID,0,VALID,100,VALID,-0.0849042,VALID,19.9509,VALID,31,VALID,0,
2009-05-16, 01:22:00,VALID,916.001,VALID,0,VALID,100,VALID,-0.0339617,VALID,19.9372,VALID,21,VALID,0.136806,
2009-05-16, 01:23:00,VALID,916.008,VALID,0,VALID,100,VALID,-0.0679233,VALID,19.9377,VALID,20,VALID,0,
2009-05-16, 01:24:00,VALID,915.996,VALID,0,VALID,100,VALID,-0.0169808,VALID,19.9539,VALID,27,VALID,0.00130208,
2009-05-16, 01:25:00,VALID,915.984,VALID,0,VALID,100,VALID,-0.0339617,VALID,19.9442,VALID,27,VALID,0.00911458,
2009-05-16, 01:26:00,VALID,915.975,VALID,0,VALID,100,VALID,-0.0849042,VALID,19.9474,VALID,27,VALID,0,
2009-05-16, 01:27:00,VALID,915.97,VALID,0,VALID,100,VALID,-0.0849042,VALID,19.9409,VALID,27,VALID,0,
2009-05-16, 01:28:00,VALID,915.939,VALID,0,VALID,100,VALID,-0.0849042,VALID,19.9347,VALID,26,VALID,0,
2009-05-16, 01:29:00,VALID,915.918,VALID,0,VALID,100,VALID,-0.0679233,VALID,19.9279,VALID,28,VALID,0,
2009-05-16, 01:30:00,VALID,915.88,VALID,0,VALID,100,VALID,-0.0849042,VALID,19.9085,VALID,26,VALID,0.0340758,
2009-05-16, 01:31:00,VALID,915.86,VALID,0,VALID,100,VALID,-0.0849042,VALID,19.895,VALID,27,VALID,0.161111,
2009-05-16, 01:32:00,VALID,915.856,VALID,0,VALID,100,VALID,-0.0509425,VALID,19.9082,VALID,28,VALID,0.00181686,
2009-05-16, 01:33:00,VALID,915.843,VALID,0,VALID,100,VALID,-0.101885,VALID,19.9215,VALID,28,VALID,0.00745739,
2009-05-16, 01:34:00,VALID,915.826,VALID,0,VALID,100,VALID,-0.0849042,VALID,19.9312,VALID,26,VALID,0.0442116,
2009-05-16, 01:35:00,VALID,915.834,VALID,0,VALID,100,VALID,-0.0849042,VALID,19.915,VALID,26,VALID,0,
2009-05-16, 01:36:00,VALID,915.814,VALID,0,VALID,100,VALID,-0.101885,VALID,19.9117,VALID,32,VALID,0,
2009-05-16, 01:37:00,VALID,915.8,VALID,0,VALID,100,VALID,-0.0849042,VALID,19.915,VALID,28,VALID,0,
2009-05-16, 01:38:00,VALID,915.781,VALID,0,VALID,100,VALID,-0.0679233,VALID,19.9055,VALID,22,VALID,0,
2009-05-16, 01:39:00,VALID,915.787,VALID,0,VALID,100,VALID,-0.101885,VALID,19.912,VALID,19,VALID,0.000355114,
2009-05-16, 01:40:00,VALID,915.782,VALID,0,VALID,100,VALID,-0.0679233,VALID,19.915,VALID,19,VALID,0.0241642,
2009-05-16, 01:41:00,VALID,915.769,VALID,0,VALID,100,VALID,-0.0679233,VALID,19.8793,VALID,19,VALID,0.000801282,
2009-05-16, 01:42:00,VALID,915.765,VALID,0,VALID,100,VALID,-0.0849042,VALID,19.8433,VALID,26,VALID,0.0403646,
2009-05-16, 01:43:00,VALID,915.765,VALID,0,VALID,100,VALID,-0.0509425,VALID,19.8368,VALID,30,VALID,0,
2009-05-16, 01:44:00,VALID,915.758,VALID,0,VALID,100,VALID,-0.0849042,VALID,19.8436,VALID,25,VALID,0,
2009-05-16, 01:45:00,VALID,915.735,VALID,0,VALID,100,VALID,-0.0679233,VALID,19.8373,VALID,27,VALID,0,
2009-05-16, 01:46:00,VALID,915.726,VALID,0,VALID,100,VALID,-0.0679233,VALID,19.8373,VALID,25,VALID,0,
2009-05-16, 01:47:00,VALID,915.732,VALID,0,VALID,100,VALID,-0.0679233,VALID,19.8371,VALID,2,VALID,0,
2009-05-16, 01:48:00,VALID,915.716,VALID,0,VALID,100,VALID,-0.0509425,VALID,19.8273,VALID,26,VALID,0,
2009-05-16, 01:49:00,VALID,915.708,VALID,0,VALID,100,VALID,-0.0339617,VALID,19.8403,VALID,36,VALID,0,
2009-05-16, 01:50:00,VALID,915.696,VALID,0,VALID,100,VALID,-0.0509425,VALID,19.8266,VALID,30,VALID,0,
2009-05-16, 01:51:00,VALID,915.691,VALID,0,VALID,100,VALID,-0.0339617,VALID,19.8204,VALID,30,VALID,0,
2009-05-16, 01:52:00,VALID,915.678,VALID,0,VALID,100,VALID,-0.0509425,VALID,19.8209,VALID,29,VALID,0,
2009-05-16, 01:53:00,VALID,915.653,VALID,0,VALID,100,VALID,-0.0509425,VALID,19.7979,VALID,22,VALID,0,
2009-05-16, 01:54:00,VALID,915.651,VALID,0,VALID,100,VALID,-0.0849042,VALID,19.7949,VALID,19,VALID,0,
2009-05-16, 01:55:00,VALID,915.642,VALID,0,VALID,100,VALID,-0.0679233,VALID,19.7782,VALID,19,VALID,0,
2009-05-16, 01:56:00,VALID,915.643,VALID,0,VALID,100,VALID,-0.0509425,VALID,19.7712,VALID,23,VALID,0,
2009-05-16, 01:57:00,VALID,915.626,VALID,0,VALID,100,VALID,-0.0509425,VALID,19.7622,VALID,23,VALID,0,
2009-05-16, 01:58:00,VALID,915.621,VALID,0,VALID,100,VALID,-0.0849042,VALID,19.7592,VALID,22,VALID,0,
2009-05-16, 01:59:00,VALID,915.613,VALID,0,VALID,100,VALID,-0.101885,VALID,19.7427,VALID,24,VALID,0,
2009-05-16, 02:00:00,VALID,915.613,VALID,0,VALID,100,VALID,-0.0849042,VALID,19.7332,VALID,34,VALID,0,
2009-05-16, 02:01:00,VALID,915.597,VALID,0,VALID,100,VALID,-0.101885,VALID,19.743,VALID,26,VALID,0.00372869,
2009-05-16, 02:02:00,VALID,915.604,VALID,0,VALID,100,VALID,-0.0679233,VALID,19.746,VALID,30,VALID,0,
2009-05-16, 02:03:00,VALID,915.6,VALID,0,VALID,100,VALID,-0.0509425,VALID,19.7527,VALID,24,VALID,0,
2009-05-16, 02:04:00,VALID,915.596,VALID,0,VALID,100,VALID,-0.0849042,VALID,19.7757,VALID,27,VALID,0.0948933,
2009-05-16, 02:05:00,VALID,915.593,VALID,0,VALID,100,VALID,-0.0509425,VALID,19.7884,VALID,33,VALID,0,
2009-05-16, 02:06:00,VALID,915.592,VALID,0,VALID,100,VALID,-0.0849042,VALID,19.7817,VALID,22,VALID,0,
2009-05-16, 02:07:00,VALID,915.583,VALID,0,VALID,100,VALID,-0.0849042,VALID,19.7719,VALID,29,VALID,0.0843023,
2009-05-16, 02:08:00,VALID,915.562,VALID,0,VALID,100,VALID,-0.101885,VALID,19.7852,VALID,23,VALID,0.721354,
2009-05-16, 02:09:00,VALID,915.557,VALID,0,VALID,100,VALID,-0.101885,VALID,19.8079,VALID,17,VALID,0.213086,
2009-05-16, 02:10:00,VALID,915.56,VALID,0,VALID,100,VALID,-0.0849042,VALID,19.8271,VALID,24,VALID,0.00241815,
2009-05-16, 02:11:00,VALID,915.56,VALID,0,VALID,100,VALID,-0.0849042,VALID,19.8436,VALID,18,VALID,0.355168,
2009-05-16, 02:12:00,VALID,915.565,VALID,0,VALID,100,VALID,-0.0679233,VALID,19.8533,VALID,27,VALID,0.348028,
2009-05-16, 02:13:00,VALID,915.576,VALID,0,VALID,100,VALID,-0.0849042,VALID,19.8601,VALID,25,VALID,0.177827,
2009-05-16, 02:14:00,VALID,915.568,VALID,0,VALID,100,VALID,-0.0849042,VALID,19.8533,VALID,17,VALID,0.288352,
2009-05-16, 02:15:00,VALID,915.563,VALID,0,VALID,100,VALID,-0.0849042,VALID,19.8922,VALID,21,VALID,0.00571646,
2009-05-16, 02:16:00,VALID,915.55,VALID,0,VALID,100,VALID,-0.0679233,VALID,19.9244,VALID,18,VALID,0,
2009-05-16, 02:17:00,VALID,915.552,VALID,0,VALID,100,VALID,-0.0849042,VALID,19.9504,VALID,26,VALID,0.00093006,
2009-05-16, 02:18:00,VALID,915.556,VALID,0,VALID,100,VALID,-0.0679233,VALID,19.9636,VALID,21,VALID,0.00120192,
2009-05-16, 02:19:00,VALID,915.532,VALID,0,VALID,100,VALID,-0.0849042,VALID,19.9701,VALID,31,VALID,0.00381541,
2009-05-16, 02:20:00,VALID,915.523,VALID,0,VALID,100,VALID,-0.0679233,VALID,19.9601,VALID,23,VALID,0,
2009-05-16, 02:21:00,VALID,915.521,VALID,0,VALID,100,VALID,-0.0509425,VALID,19.9699,VALID,29,VALID,0,
2009-05-16, 02:22:00,VALID,915.521,VALID,0,VALID,100,VALID,-0.0339617,VALID,19.9696,VALID,27,VALID,0,
2009-05-16, 02:23:00,VALID,915.507,VALID,0,VALID,100,VALID,-0.0169808,VALID,19.9666,VALID,28,VALID,0,
2009-05-16, 02:24:00,VALID,915.492,VALID,0,VALID,100,VALID,-0.0849042,VALID,19.9569,VALID,25,VALID,0,
2009-05-16, 02:25:00,VALID,915.477,VALID,0,VALID,100,VALID,-0.0679233,VALID,19.9539,VALID,28,VALID,0,
2009-05-16, 02:26:00,VALID,915.452,VALID,0,VALID,100,VALID,-0.0849042,VALID,19.9604,VALID,26,VALID,0,
2009-05-16, 02:27:00,VALID,915.45,VALID,0,VALID,100,VALID,-0.0509425,VALID,19.9534,VALID,25,VALID,0,
2009-05-16, 02:28:00,VALID,915.438,VALID,0,VALID,100,VALID,-0.0509425,VALID,19.9604,VALID,28,VALID,0,
2009-05-16, 02:29:00,VALID,915.416,VALID,0,VALID,100,VALID,-0.0509425,VALID,19.9469,VALID,26,VALID,0,
2009-05-16, 02:30:00,VALID,915.404,VALID,0,VALID,100,VALID,-0.0849042,VALID,19.9377,VALID,30,VALID,0,
2009-05-16, 02:31:00,VALID,915.361,VALID,0,VALID,100,VALID,-0.0679233,VALID,19.9279,VALID,31,VALID,0,
2009-05-16, 02:32:00,VALID,915.346,VALID,0,VALID,100,VALID,-0.101885,VALID,19.908,VALID,33,VALID,0,
2009-05-16, 02:33:00,VALID,915.323,VALID,0,VALID,100,VALID,-0.0339617,VALID,19.8985,VALID,33,VALID,0,
2009-05-16, 02:34:00,VALID,915.301,VALID,0,VALID,100,VALID,-0.0679233,VALID,19.8912,VALID,33,VALID,0,
2009-05-16, 02:35:00,VALID,915.29,VALID,0,VALID,100,VALID,-0.0679233,VALID,19.8688,VALID,33,VALID,0,
2009-05-16, 02:36:00,VALID,915.273,VALID,0,VALID,100,VALID,-0.0509425,VALID,19.8566,VALID,20,VALID,0,
2009-05-16, 02:37:00,VALID,915.262,VALID,0,VALID,100,VALID,-0.101885,VALID,19.8533,VALID,10,VALID,0,
2009-05-16, 02:38:00,VALID,915.253,VALID,0,VALID,100,VALID,-0.0679233,VALID,19.8436,VALID,10,VALID,0,
2009-05-16, 02:39:00,VALID,915.238,VALID,0,VALID,100,VALID,-0.0339617,VALID,19.8486,VALID,211,VALID,0,
2009-05-16, 02:40:00,VALID,915.228,VALID,0,VALID,100,VALID,0,VALID,19.8483,VALID,209,VALID,0,
2009-05-16, 02:41:00,VALID,915.235,VALID,0,VALID,100,VALID,0.0339617,VALID,19.8191,VALID,209,VALID,0,
2009-05-16, 02:42:00,VALID,915.231,VALID,0,VALID,100,VALID,0.0339617,VALID,19.7964,VALID,209,VALID,0,
2009-05-16, 02:43:00,VALID,915.237,VALID,0,VALID,100,VALID,0.0509425,VALID,19.7704,VALID,209,VALID,0,
2009-05-16, 02:44:00,VALID,915.239,VALID,0,VALID,100,VALID,0.0339617,VALID,19.725,VALID,209,VALID,0,
2009-05-16, 02:45:00,VALID,915.248,VALID,0,VALID,100,VALID,0.0169808,VALID,19.6896,VALID,209,VALID,0,
2009-05-16, 02:46:00,VALID,915.255,VALID,0,VALID,100,VALID,0.0339617,VALID,19.6439,VALID,209,VALID,0,
2009-05-16, 02:47:00,VALID,915.249,VALID,0,VALID,100,VALID,0.0339617,VALID,19.608,VALID,209,VALID,0,
2009-05-16, 02:48:00,VALID,915.257,VALID,0,VALID,100,VALID,0,VALID,19.585,VALID,209,VALID,0,
2009-05-16, 02:49:00,VALID,915.268,VALID,0,VALID,100,VALID,0.0339617,VALID,19.5398,VALID,209,VALID,0,
2009-05-16, 02:50:00,VALID,915.255,VALID,0,VALID,100,VALID,0.0509425,VALID,19.5079,VALID,209,VALID,0,
2009-05-16, 02:51:00,VALID,915.256,VALID,0,VALID,100,VALID,0,VALID,19.4587,VALID,209,VALID,0,
2009-05-16, 02:52:00,VALID,915.254,VALID,0,VALID,100,VALID,0.0339617,VALID,19.4298,VALID,209,VALID,0,
2009-05-16, 02:53:00,VALID,915.238,VALID,0,VALID,100,VALID,0.0169808,VALID,19.3973,VALID,209,VALID,0,
2009-05-16, 02:54:00,VALID,915.234,VALID,0,VALID,100,VALID,0.0509425,VALID,19.3843,VALID,209,VALID,0,
2009-05-16, 02:55:00,VALID,915.211,VALID,0,VALID,100,VALID,0,VALID,19.3908,VALID,209,VALID,0,
2009-05-16, 02:56:00,VALID,915.19,VALID,0,VALID,100,VALID,0.0509425,VALID,19.3839,VALID,209,VALID,0,
2009-05-16, 02:57:00,VALID,915.186,VALID,0,VALID,100,VALID,-0.0169808,VALID,19.3649,VALID,209,VALID,0,
2009-05-16, 02:58:00,VALID,915.183,VALID,0,VALID,100,VALID,0.0169808,VALID,19.3554,VALID,209,VALID,0,
2009-05-16, 02:59:00,VALID,915.177,VALID,0,VALID,100,VALID,0,VALID,19.329,VALID,209,VALID,0,
2009-05-16, 03:00:00,VALID,915.163,VALID,0,VALID,100,VALID,0.0339617,VALID,19.2895,VALID,209,VALID,0,
2009-05-16, 03:01:00,VALID,915.162,VALID,0,VALID,100,VALID,-0.0169808,VALID,19.268,VALID,209,VALID,0,
2009-05-16, 03:02:00,VALID,915.159,VALID,0,VALID,100,VALID,-0.0169808,VALID,19.2516,VALID,209,VALID,0,
2009-05-16, 03:03:00,VALID,915.154,VALID,0,VALID,100,VALID,0,VALID,19.2261,VALID,209,VALID,0,
2009-05-16, 03:04:00,VALID,915.159,VALID,0,VALID,100,VALID,0,VALID,19.2094,VALID,209,VALID,0,
2009-05-16, 03:05:00,VALID,915.155,VALID,0,VALID,100,VALID,0,VALID,19.2092,VALID,209,VALID,0,
2009-05-16, 03:06:00,VALID,915.145,VALID,0,VALID,100,VALID,0,VALID,19.2256,VALID,209,VALID,0,
2009-05-16, 03:07:00,VALID,915.141,VALID,0,VALID,100,VALID,0.0169808,VALID,19.2159,VALID,209,VALID,0,
2009-05-16, 03:08:00,VALID,915.148,VALID,0,VALID,100,VALID,0,VALID,19.2189,VALID,209,VALID,0,
2009-05-16, 03:09:00,VALID,915.154,VALID,0,VALID,100,VALID,-0.0169808,VALID,19.2324,VALID,209,VALID,0,
2009-05-16, 03:10:00,VALID,915.153,VALID,0,VALID,100,VALID,0,VALID,19.2384,VALID,209,VALID,0,
2009-05-16, 03:11:00,VALID,915.167,VALID,0,VALID,100,VALID,-0.0169808,VALID,19.2483,VALID,209,VALID,0,
2009-05-16, 03:12:00,VALID,915.184,VALID,0,VALID,100,VALID,0.0169808,VALID,19.2518,VALID,209,VALID,0,
2009-05-16, 03:13:00,VALID,915.214,VALID,0,VALID,100,VALID,0.0169808,VALID,19.2416,VALID,209,VALID,0,
2009-05-16, 03:14:00,VALID,915.224,VALID,0,VALID,100,VALID,-0.0339617,VALID,19.2356,VALID,209,VALID,0,
2009-05-16, 03:15:00,VALID,915.254,VALID,0,VALID,100,VALID,0,VALID,19.2286,VALID,209,VALID,0,
2009-05-16, 03:16:00,VALID,915.279,VALID,0,VALID,100,VALID,0.0169808,VALID,19.2157,VALID,209,VALID,0,
2009-05-16, 03:17:00,VALID,915.314,VALID,0,VALID,100,VALID,0,VALID,19.2022,VALID,209,VALID,0,
2009-05-16, 03:18:00,VALID,915.338,VALID,0,VALID,100,VALID,-0.0339617,VALID,19.1962,VALID,209,VALID,0,
2009-05-16, 03:19:00,VALID,915.345,VALID,0,VALID,100,VALID,0.0339617,VALID,19.1897,VALID,209,VALID,0,
2009-05-16, 03:20:00,VALID,915.352,VALID,0,VALID,100,VALID,0,VALID,19.1964,VALID,209,VALID,0,
2009-05-16, 03:21:00,VALID,915.371,VALID,0,VALID,100,VALID,0.0169808,VALID,19.1892,VALID,209,VALID,0,
2009-05-16, 03:22:00,VALID,915.368,VALID,0,VALID,100,VALID,0.0509425,VALID,19.1917,VALID,209,VALID,0,
2009-05-16, 03:23:00,VALID,915.378,VALID,0,VALID,100,VALID,0.0169808,VALID,19.2114,VALID,209,VALID,0,
2009-05-16, 03:24:00,VALID,915.384,VALID,0,VALID,100,VALID,0,VALID,19.2182,VALID,209,VALID,0,
2009-05-16, 03:25:00,VALID,915.398,VALID,0,VALID,100,VALID,0.0339617,VALID,19.2219,VALID,209,VALID,0,
2009-05-16, 03:26:00,VALID,915.405,VALID,0,VALID,100,VALID,0.0339617,VALID,19.2084,VALID,209,VALID,0,
2009-05-16, 03:27:00,VALID,915.4,VALID,0,VALID,100,VALID,0.0679233,VALID,19.179,VALID,209,VALID,0,
2009-05-16, 03:28:00,VALID,915.392,VALID,0,VALID,100,VALID,0,VALID,19.1897,VALID,209,VALID,0,
2009-05-16, 03:29:00,VALID,915.379,VALID,0,VALID,100,VALID,0,VALID,19.1895,VALID,209,VALID,0,
2009-05-16, 03:30:00,VALID,915.376,VALID,0,VALID,100,VALID,-0.0169808,VALID,19.1603,VALID,209,VALID,0,
2009-05-16, 03:31:00,VALID,915.356,VALID,0,VALID,100,VALID,0,VALID,19.151,VALID,209,VALID,0,
2009-05-16, 03:32:00,VALID,915.351,VALID,0,VALID,100,VALID,0,VALID,19.1278,VALID,209,VALID,0,
2009-05-16, 03:33:00,VALID,915.351,VALID,0,VALID,100,VALID,0,VALID,19.1346,VALID,209,VALID,0,
2009-05-16, 03:34:00,VALID,915.351,VALID,0,VALID,100,VALID,0,VALID,19.148,VALID,209,VALID,0,
2009-05-16, 03:35:00,VALID,915.355,VALID,0,VALID,100,VALID,-0.0169808,VALID,19.138,VALID,209,VALID,0,
2009-05-16, 03:36:00,VALID,915.369,VALID,0,VALID,100,VALID,-0.0169808,VALID,19.1153,VALID,209,VALID,0,
2009-05-16, 03:37:00,VALID,915.386,VALID,0,VALID,100,VALID,0,VALID,19.0926,VALID,209,VALID,0,
2009-05-16, 03:38:00,VALID,915.394,VALID,0,VALID,100,VALID,0,VALID,19.0727,VALID,209,VALID,0,
2009-05-16, 03:39:00,VALID,915.398,VALID,0,VALID,100,VALID,-0.0169808,VALID,19.0722,VALID,209,VALID,0,
2009-05-16, 03:40:00,VALID,915.412,VALID,0,VALID,100,VALID,0,VALID,19.0984,VALID,209,VALID,0,
2009-05-16, 03:41:00,VALID,915.421,VALID,0,VALID,100,VALID,0,VALID,19.1151,VALID,209,VALID,0,
2009-05-16, 03:42:00,VALID,915.414,VALID,0,VALID,100,VALID,0,VALID,19.0986,VALID,209,VALID,0,
2009-05-16, 03:43:00,VALID,915.414,VALID,0,VALID,100,VALID,0,VALID,19.0924,VALID,209,VALID,0,
2009-05-16, 03:44:00,VALID,915.405,VALID,0,VALID,100,VALID,-0.0169808,VALID,19.0924,VALID,209,VALID,0,
2009-05-16, 03:45:00,VALID,915.409,VALID,0,VALID,100,VALID,-0.0169808,VALID,19.0729,VALID,209,VALID,0,
2009-05-16, 03:46:00,VALID,915.432,VALID,0,VALID,100,VALID,-0.0169808,VALID,19.0859,VALID,209,VALID,0,
2009-05-16, 03:47:00,VALID,915.435,VALID,0,VALID,100,VALID,0,VALID,19.1014,VALID,209,VALID,0,
2009-05-16, 03:48:00,VALID,915.43,VALID,0,VALID,100,VALID,0.0169808,VALID,19.1011,VALID,209,VALID,0,
2009-05-16, 03:49:00,VALID,915.433,VALID,0,VALID,100,VALID,0,VALID,19.1118,VALID,209,VALID,0,
2009-05-16, 03:50:00,VALID,915.438,VALID,0,VALID,100,VALID,0,VALID,19.1146,VALID,209,VALID,0,
2009-05-16, 03:51:00,VALID,915.432,VALID,0,VALID,100,VALID,0.0169808,VALID,19.1373,VALID,209,VALID,0,
2009-05-16, 03:52:00,VALID,915.416,VALID,0,VALID,100,VALID,0.0169808,VALID,19.1211,VALID,209,VALID,0,